Weather History for Cecil Field, FL

Change the Weather History Date:

Friday, March 15, 2013

  Actual Average (KJAX) Record (KJAX)
Temperature  
Mean Temperature 50 °F 62 °F  
Max Temperature 73 °F 74 °F 90 °F (1967)
Min Temperature 28 °F 50 °F 27 °F (1993)
Degree Days  
Heating Degree Days 14 5  
Month to date heating degree days 92  
Since 1 July heating degree days 1225  
Cooling Degree Days 0 2  
Month to date cooling degree days 22  
Year to date cooling degree days 51  
Moisture  
Dew Point 33 °F    
Average Humidity 68    
Maximum Humidity 100    
Minimum Humidity 25    
Precipitation  
Precipitation 0.00 in 0.13 in 2.63 in (1959)
Month to date precipitation 2.03  
Year to date precipitation 8.52  
Snow  
Snow 0.00 in 0.00 in 0.00 in (2002)
Month to date snowfall 0.0  
Since 1 July snowfall T  
Snow Depth -    
Sea Level Pressure  
Sea Level Pressure 30.22 in    
Wind  
Wind Speed 2 mph (WSW)    
Max Wind Speed 10 mph    
Max Gust Speed -    
Visibility 10 miles    
Events      
T = Trace of Precipitation, MM = Missing Value Source: NWS Daily Summary

Daily Weather History Graph

Daily Weather History Graph

Search for Another Location

Airport:

Trip Planner

Search our weather history database for the weather conditions in past years. The results will help you decide how hot, cold, wet, or windy it might be!

Date:

Astronomy

Mar. 15, 2013 Rise Set
Actual Time 7:37 AM EDT 7:35 PM EDT
Civil Twilight 7:13 AM EDT 7:59 PM EDT
Nautical Twilight 6:45 AM EDT 8:27 PM EDT
Astronomical Twilight 6:17 AM EDT 8:55 PM EDT
Moon 9:45 AM EDT (3/15) 11:28 PM EDT (3/15)
Length of Visible Light 12h 46m
Length of Day
11h 58m
Waxing Crescent, 15% of the Moon is Illuminated
Mar 15
Waxing Crescent
Mar 19
First Quarter
Mar 27
Full
Apr 3
Last Quarter
Apr 10
New

Hourly Weather History & Observations

Time (EDT) Temp. Dew Point Humidity Pressure Visibility Wind Dir Wind Speed Gust Speed Precip Events Conditions
12:15 AM 32.0 °F 30.2 °F 93% 30.28 in 10.0 mi Calm Calm - N/A   Clear
12:35 AM 32.0 °F 32.0 °F 100% 30.28 in 10.0 mi Calm Calm - N/A   Clear
12:55 AM 32.0 °F 30.2 °F 93% 30.29 in 10.0 mi Calm Calm - N/A   Clear
1:15 AM 32.0 °F 30.2 °F 93% 30.28 in 10.0 mi Calm Calm - N/A   Clear
1:35 AM 32.0 °F 30.2 °F 93% 30.28 in 10.0 mi Calm Calm - N/A   Clear
1:55 AM 30.2 °F 28.4 °F 93% 30.28 in 10.0 mi Calm Calm - N/A   Clear
2:15 AM 32.0 °F 30.2 °F 93% 30.28 in 10.0 mi Calm Calm - N/A   Clear
2:35 AM 32.0 °F 30.2 °F 93% 30.27 in 10.0 mi Calm Calm - N/A   Clear
2:55 AM 30.2 °F 28.4 °F 93% 30.26 in 9.0 mi Calm Calm - N/A   Clear
3:15 AM 30.2 °F 28.4 °F 93% 30.26 in 10.0 mi Calm Calm - N/A   Clear
3:35 AM 30.2 °F 28.4 °F 93% 30.25 in 9.0 mi Calm Calm - N/A   Clear
3:55 AM 32.0 °F 30.2 °F 93% 30.24 in 10.0 mi Calm Calm - N/A   Clear
4:15 AM 30.2 °F 28.4 °F 93% 30.24 in 9.0 mi Calm Calm - N/A   Clear
4:35 AM 30.2 °F 30.2 °F 100% 30.24 in 10.0 mi Calm Calm - N/A   Clear
4:55 AM 30.2 °F 28.4 °F 93% 30.24 in 10.0 mi Calm Calm - N/A   Clear
5:35 AM 28.4 °F 28.4 °F 100% 30.24 in 9.0 mi Calm Calm - N/A   Clear
5:55 AM 30.2 °F 28.4 °F 93% 30.25 in 9.0 mi Calm Calm - N/A   Clear
6:15 AM 30.2 °F 28.4 °F 93% 30.26 in 10.0 mi Calm Calm - N/A   Clear
6:35 AM 28.4 °F 28.4 °F 100% 30.26 in 10.0 mi Calm Calm - N/A   Clear
6:50 AM 28.4 °F 28.4 °F 100% 30.26 in 10.0 mi Calm Calm - N/A   Clear
7:50 AM 28.4 °F 28.4 °F 100% 30.28 in 10.0 mi Calm Calm - N/A   Clear
9:50 AM 48.2 °F 32.0 °F 54% 30.30 in 7.0 mi Calm Calm - N/A   Clear
10:50 AM 57.2 °F 24.8 °F 29% 30.30 in 7.0 mi Calm Calm - N/A   Clear
11:50 AM 60.8 °F 30.2 °F 31% 30.29 in 7.0 mi Calm Calm - N/A   Clear
12:50 PM 64.4 °F 32.0 °F 30% 30.27 in 7.0 mi Variable 5.8 mph - N/A   Clear
1:50 PM 66.2 °F 33.8 °F 30% 30.23 in 10.0 mi Variable 5.8 mph - N/A   Clear
2:50 PM 69.8 °F 35.6 °F 28% 30.20 in 10.0 mi WNW 10.4 mph - N/A   Clear
3:50 PM 71.6 °F 35.6 °F 27% 30.16 in 10.0 mi WNW 6.9 mph - N/A   Clear
4:50 PM 73.4 °F 35.6 °F 25% 30.14 in 10.0 mi West 6.9 mph - N/A   Clear
5:50 PM 73.4 °F 37.4 °F 27% 30.14 in 10.0 mi WNW 10.4 mph - N/A   Clear
6:50 PM 69.8 °F 37.4 °F 31% 30.13 in 10.0 mi WSW 5.8 mph - N/A   Clear
7:50 PM 59.0 °F 41.0 °F 51% 30.14 in 10.0 mi Calm Calm - N/A   Clear
8:15 PM 53.6 °F 41.0 °F 62% 30.14 in 10.0 mi Calm Calm - N/A   Clear
8:35 PM 50.0 °F 39.2 °F 66% 30.14 in 10.0 mi Calm Calm - N/A   Clear
8:55 PM 50.0 °F 37.4 °F 62% 30.15 in 10.0 mi SSW 8.1 mph - N/A   Clear
9:15 PM 59.0 °F 37.4 °F 45% 30.15 in 10.0 mi SSW 8.1 mph - N/A   Clear
9:35 PM 57.2 °F 37.4 °F 48% 30.16 in 10.0 mi SSW 9.2 mph - N/A   Clear
9:55 PM 57.2 °F 37.4 °F 48% 30.16 in 10.0 mi SW 6.9 mph - N/A   Clear
10:15 PM 57.2 °F 37.4 °F 48% 30.16 in 10.0 mi SW 6.9 mph - N/A   Clear
10:35 PM 55.4 °F 37.4 °F 51% 30.17 in 10.0 mi SW 5.8 mph - N/A   Clear
10:55 PM 53.6 °F 37.4 °F 54% 30.18 in 10.0 mi SW 4.6 mph - N/A   Clear
11:15 PM 50.0 °F 37.4 °F 62% 30.18 in 10.0 mi SW 3.5 mph - N/A   Clear
11:35 PM 53.6 °F 37.4 °F 54% 30.18 in 10.0 mi SW 6.9 mph - N/A   Clear
11:55 PM 53.6 °F 37.4 °F 54% 30.18 in 10.0 mi SW 8.1 mph - N/A   Clear